Location: Arbon
(43.0005°N, 0.7472°E)
Time: 16:32:12
(UTC+00:00)

IRS-1D - Pass Details

Date: 07 August 2020
Orbit: 741 x 816 km, 98.6° (Epoch: 23 September)

Event Time Altitude Azimuth Distance (km) Brightness Sun altitude
Rises 02:23:14 0° 12° (NNE) 3,215 7.8 -22.5°
Reaches altitude 10° 02:25:31 10° 11° (N) 2,295 6.8 -22.2°
Maximum altitude 02:30:34 77° 286° (WNW) 793 3.4 -21.7°
Enters shadow 02:31:56 49° 213° (SSW) 987 3.6 -21.5°
